When you browse on this site, cookies collect data to enhance your experience and personalize the content and advertising you see.
Visit our Privacy Policy to learn more. By continuing to use the site, you agree to this use of cookies and data.
  • In United Kingdom
  • List of Countries
  • For 7 days
  • Water Temperature
  • Weather Map
  • Weather Widgets
  • user-avatar
    Login

    Hourly Weather Khomas

    Today, 15 November, Friday

    Time Temperature Precipitation Wind Pressure Humidity
    00:00 +19°C° 0 mm 2 mps 608 mmHg 34%
    01:00 +18°C° 0 mm 3 mps 608 mmHg 37%
    02:00 +18°C° 0 mm 3 mps 608 mmHg 37%
    03:00 +17°C° 0 mm 3 mps 608 mmHg 38%
    04:00 +17°C° 0 mm 3 mps 607 mmHg 39%
    05:00 +19°C° 0 mm 3 mps 608 mmHg 31%
    06:00 +20°C° 0 mm 4 mps 609 mmHg 24%
    07:00 +22°C° 0 mm 4 mps 611 mmHg 17%
    08:00 +25°C° 0 mm 3 mps 611 mmHg 15%
    09:00 +28°C° 0 mm 3 mps 611 mmHg 13%
    10:00 +30°C° 0 mm 2 mps 611 mmHg 12%
    11:00 +31°C° 0 mm 2 mps 611 mmHg 11%
    12:00 +33°C° 0 mm 3 mps 611 mmHg 10%
    13:00 +34°C° 0 mm 3 mps 611 mmHg 9%
    14:00 +34°C° 0 mm 4 mps 611 mmHg 9%
    15:00 +34°C° 0 mm 5 mps 610 mmHg 9%
    16:00 +34°C° 0 mm 6 mps 610 mmHg 9%
    17:00 +30°C° 0 mm 6 mps 609 mmHg 17%
    18:00 +27°C° 0 mm 6 mps 609 mmHg 24%
    19:00 +23°C° 0 mm 6 mps 608 mmHg 31%
    20:00 +22°C° 0 mm 5 mps 608 mmHg 34%
    21:00 +21°C° 0 mm 4 mps 608 mmHg 37%
    22:00 +19°C° 0 mm 2 mps 608 mmHg 40%
    23:00 +19°C° 0 mm 2 mps 607 mmHg 41%

    Tomorrow, 16 November, Saturday

    Time Temperature Precipitation Wind Pressure Humidity
    00:00 +19°C° 0 mm 1 mps 607 mmHg 42%
    01:00 +18°C° 0 mm 1 mps 606 mmHg 44%
    02:00 +18°C° 0 mm 1 mps 606 mmHg 42%
    03:00 +17°C° 0 mm 2 mps 606 mmHg 40%
    04:00 +17°C° 0 mm 2 mps 606 mmHg 38%
    05:00 +19°C° 0 mm 3 mps 607 mmHg 33%
    06:00 +20°C° 0 mm 3 mps 608 mmHg 27%
    07:00 +22°C° 0 mm 3 mps 609 mmHg 21%
    08:00 +26°C° 0 mm 3 mps 609 mmHg 18%
    09:00 +28°C° 0 mm 2 mps 610 mmHg 15%
    10:00 +30°C° 0 mm 1 mps 610 mmHg 11%
    11:00 +31°C° 0 mm 2 mps 610 mmHg 11%
    12:00 +33°C° 0 mm 3 mps 610 mmHg 10%
    13:00 +35°C° 0 mm 4 mps 610 mmHg 9%
    14:00 +34°C° 0 mm 5 mps 609 mmHg 11%
    15:00 +34°C° 0 mm 7 mps 609 mmHg 12%
    16:00 +33°C° 0 mm 9 mps 608 mmHg 13%
    17:00 +29°C° 0 mm 8 mps 608 mmHg 18%
    18:00 +26°C° 0 mm 8 mps 607 mmHg 22%
    19:00 +22°C° 0 mm 7 mps 606 mmHg 27%
    20:00 +21°C° 0 mm 6 mps 607 mmHg 29%
    21:00 +20°C° 0 mm 4 mps 607 mmHg 32%
    22:00 +19°C° 0 mm 2 mps 607 mmHg 35%
    23:00 +19°C° 0 mm 2 mps 607 mmHg 31%

    Day after tomorrow, 17 November, Sunday

    Time Temperature Precipitation Wind Pressure Humidity
    00:00 +18°C° 0 mm 2 mps 606 mmHg 28%
    01:00 +18°C° 0 mm 2 mps 606 mmHg 25%
    02:00 +18°C° 0 mm 2 mps 606 mmHg 25%
    03:00 +18°C° 0 mm 2 mps 606 mmHg 26%
    04:00 +18°C° 0 mm 2 mps 606 mmHg 27%
    05:00 +20°C° 0 mm 2 mps 607 mmHg 26%
    06:00 +21°C° 0 mm 2 mps 608 mmHg 24%
    07:00 +24°C° 0 mm 2 mps 608 mmHg 23%
    08:00 +25°C° 0 mm 2 mps 609 mmHg 21%
    09:00 +27°C° 0 mm 2 mps 609 mmHg 18%
    10:00 +29°C° 0 mm 1 mps 610 mmHg 16%
    11:00 +30°C° 0 mm 3 mps 610 mmHg 14%
    12:00 +32°C° 0 mm 5 mps 609 mmHg 12%
    13:00 +34°C° 0 mm 7 mps 609 mmHg 10%
    14:00 +33°C° 0 mm 8 mps 609 mmHg 10%
    15:00 +32°C° 0 mm 9 mps 608 mmHg 10%
    16:00 +31°C° 0 mm 9 mps 608 mmHg 9%
    17:00 +28°C° 0 mm 9 mps 607 mmHg 12%
    18:00 +24°C° 0 mm 8 mps 607 mmHg 15%
    19:00 +22°C° 0 mm 7 mps 606 mmHg 17%
    20:00 +20°C° 0 mm 6 mps 606 mmHg 23%
    21:00 +17°C° 0 mm 5 mps 606 mmHg 29%
    22:00 +17°C° 0 mm 3 mps 607 mmHg 35%
    23:00 +16°C° 0 mm 3 mps 606 mmHg 37%

    18 November, Monday

    Time Temperature Precipitation Wind Pressure Humidity
    00:00 +14°C° 0 mm 2 mps 605 mmHg 40%
    01:00 +13°C° 0 mm 2 mps 605 mmHg 43%
    02:00 +13°C° 0 mm 2 mps 605 mmHg 42%
    03:00 +12°C° 0 mm 2 mps 604 mmHg 41%
    04:00 +10°C° 0 mm 2 mps 604 mmHg 40%
    05:00 +14°C° 0 mm 2 mps 605 mmHg 34%
    06:00 +17°C° 0 mm 2 mps 607 mmHg 28%
    07:00 +20°C° 0 mm 3 mps 608 mmHg 21%
    08:00 +22°C° 0 mm 3 mps 609 mmHg 17%
    09:00 +26°C° 0 mm 4 mps 610 mmHg 14%
    10:00 +29°C° 0 mm 5 mps 610 mmHg 10%
    11:00 +30°C° 0 mm 6 mps 610 mmHg 9%
    12:00 +32°C° 0 mm 7 mps 610 mmHg 9%
    13:00 +33°C° 0 mm 9 mps 610 mmHg 8%
    14:00 +32°C° 0 mm 8 mps 610 mmHg 9%
    15:00 +31°C° 0 mm 8 mps 609 mmHg 10%
    16:00 +29°C° 0 mm 8 mps 609 mmHg 10%
    17:00 +27°C° 0 mm 7 mps 608 mmHg 14%
    18:00 +23°C° 0 mm 6 mps 608 mmHg 17%
    19:00 +20°C° 0 mm 5 mps 607 mmHg 20%
    20:00 +19°C° 0 mm 4 mps 607 mmHg 25%
    21:00 +18°C° 0 mm 3 mps 607 mmHg 30%
    22:00 +17°C° 0 mm 3 mps 607 mmHg 36%
    23:00 +16°C° 0 mm 3 mps 607 mmHg 34%

    19 November, Tuesday

    Time Temperature Precipitation Wind Pressure Humidity
    00:00 +16°C° 0 mm 3 mps 607 mmHg 33%
    01:00 +16°C° 0 mm 3 mps 607 mmHg 32%
    02:00 +16°C° 0 mm 2 mps 607 mmHg 29%
    03:00 +16°C° 0 mm 2 mps 607 mmHg 27%
    04:00 +16°C° 0 mm 2 mps 607 mmHg 25%
    05:00 +17°C° 0 mm 2 mps 608 mmHg 22%
    06:00 +19°C° 0 mm 2 mps 609 mmHg 19%
    07:00 +20°C° 0 mm 2 mps 609 mmHg 17%
    08:00 +23°C° 0 mm 2 mps 610 mmHg 14%
    09:00 +25°C° 0 mm 2 mps 610 mmHg 12%
    10:00 +27°C° 0 mm 1 mps 611 mmHg 10%
    11:00 +29°C° 0 mm 3 mps 610 mmHg 10%
    12:00 +30°C° 0 mm 4 mps 610 mmHg 10%
    13:00 +32°C° 0 mm 6 mps 610 mmHg 10%
    14:00 +32°C° 0 mm 7 mps 610 mmHg 10%
    15:00 +31°C° 0 mm 8 mps 609 mmHg 11%
    16:00 +31°C° 0 mm 9 mps 609 mmHg 11%
    17:00 +27°C° 0 mm 8 mps 608 mmHg 16%
    18:00 +23°C° 0 mm 8 mps 607 mmHg 21%
    19:00 +18°C° 0 mm 8 mps 607 mmHg 25%
    20:00 +19°C° 0 mm 6 mps 607 mmHg 26%
    21:00 +17°C° 0 mm 5 mps 607 mmHg 26%
    22:00 +17°C° 0 mm 4 mps 608 mmHg 27%
    23:00 +17°C° 0 mm 3 mps 607 mmHg 26%

    20 November, Wednesday

    Time Temperature Precipitation Wind Pressure Humidity
    00:00 +17°C° 0 mm 2 mps 607 mmHg 26%
    01:00 +18°C° 0 mm 1 mps 607 mmHg 26%
    02:00 +16°C° 0 mm 1 mps 607 mmHg 26%
    03:00 +16°C° 0 mm 1 mps 606 mmHg 26%
    04:00 +15°C° 0 mm 1 mps 606 mmHg 25%
    05:00 +17°C° 0 mm 2 mps 607 mmHg 22%
    06:00 +20°C° 0 mm 3 mps 608 mmHg 18%
    07:00 +22°C° 0 mm 4 mps 609 mmHg 14%
    08:00 +24°C° 0 mm 3 mps 610 mmHg 14%
    09:00 +26°C° 0 mm 2 mps 610 mmHg 15%
    10:00 +28°C° 0 mm 2 mps 610 mmHg 15%
    11:00 +29°C° 0 mm 3 mps 610 mmHg 14%
    12:00 +30°C° 0 mm 5 mps 610 mmHg 14%
    13:00 +33°C° 0 mm 7 mps 610 mmHg 13%
    14:00 +32°C° 0 mm 7 mps 609 mmHg 13%
    15:00 +31°C° 0 mm 8 mps 609 mmHg 12%
    16:00 +29°C° 0 mm 9 mps 608 mmHg 12%
    17:00 +27°C° 0 mm 8 mps 608 mmHg 14%
    18:00 +23°C° 0 mm 8 mps 608 mmHg 16%
    19:00 +21°C° 0 mm 8 mps 607 mmHg 18%
    20:00 +19°C° 0 mm 6 mps 607 mmHg 25%
    21:00 +16°C° 0 mm 5 mps 607 mmHg 33%
    22:00 +16°C° 0 mm 3 mps 607 mmHg 41%
    23:00 +16°C° 0 mm 3 mps 607 mmHg 38%
    Show more